2024/02/05 00:00:00, 0.0,-0.2
2024/02/05 00:10:00, 0.0,-0.1
2024/02/05 00:20:00, 0.0,-0.2
2024/02/05 00:30:00, 0.0,-0.6
2024/02/05 00:40:00, 0.0,-0.5
2024/02/05 00:50:00, 0.0,-0.5
2024/02/05 01:00:00, 0.0,-0.6
2024/02/05 01:10:00, 0.0,-0.3
2024/02/05 01:20:00, 0.0,-0.2
2024/02/05 01:30:00, 0.0,-0.2
2024/02/05 01:40:00, 0.0,-0.5
2024/02/05 01:50:00, 0.0,-0.0
2024/02/05 02:00:00, 0.0,-0.1
2024/02/05 02:10:00, 0.0, 0.1
2024/02/05 02:20:00, 0.0, 0.1
2024/02/05 02:30:00, 0.0, 0.1
2024/02/05 02:40:00, 0.0, 0.2
2024/02/05 02:50:00, 0.0, 0.3
2024/02/05 03:00:00, 0.0,-0.0
2024/02/05 03:10:00, 0.0,-0.1
2024/02/05 03:20:00, 0.0, 0.2
2024/02/05 03:30:00, 0.0, 0.2
2024/02/05 03:40:00, 0.0, 0.1
2024/02/05 03:50:00, 0.0, 0.2
2024/02/05 04:00:00, 0.0, 0.1
2024/02/05 04:10:00, 0.0,-0.1
2024/02/05 04:20:00, 0.0,-0.0
2024/02/05 04:30:00, 0.0, 0.1
2024/02/05 04:40:00, 0.0,-0.1
2024/02/05 04:50:00, 0.0,-0.2
2024/02/05 05:00:00, 0.0,-0.0
2024/02/05 05:10:00, 0.0, 0.1
2024/02/05 05:20:00, 0.0, 0.1
2024/02/05 05:30:00, 0.0,-0.3
2024/02/05 05:40:00, 0.0,-0.7
2024/02/05 05:50:00, 0.0,-0.2
2024/02/05 06:00:00, 0.0,-0.8
2024/02/05 06:10:00, 0.0,-0.8
2024/02/05 06:20:00, 0.0,-0.6
2024/02/05 06:30:00, 0.0,-0.9
2024/02/05 06:40:00, 0.0,-0.6
2024/02/05 06:50:00, 0.0,-0.6
2024/02/05 07:00:00, 0.0,-0.8
2024/02/05 07:10:00, 0.0,-0.4
2024/02/05 07:20:00, 0.0,-0.5
2024/02/05 07:30:00, 0.0,-0.6
2024/02/05 07:40:00, 0.0,-0.6
2024/02/05 07:50:00, 0.0,-0.7
2024/02/05 08:00:00, 0.0,-0.5
2024/02/05 08:10:00, 0.0,-0.7
2024/02/05 08:20:00,---,-0.7
2024/02/05 08:30:00, 0.0,-0.6
2024/02/05 08:40:00, 0.0,-0.5
2024/02/05 08:50:00, 0.0,-0.4
2024/02/05 09:00:00, 0.0,-0.1
2024/02/05 09:10:00, 0.0, 0.1
2024/02/05 09:20:00, 0.0, 0.5
2024/02/05 09:30:00, 0.0, 0.2
2024/02/05 09:40:00, 0.0, 0.2
2024/02/05 09:50:00, 0.0, 0.8
2024/02/05 10:00:00, 0.0, 0.8
2024/02/05 10:10:00, 0.0, 0.6
2024/02/05 10:20:00, 0.0, 0.6
2024/02/05 10:30:00, 0.0, 1.4
2024/02/05 10:40:00, 0.0, 1.1
2024/02/05 10:50:00, 0.0, 0.8
2024/02/05 11:00:00, 0.0, 1.4
2024/02/05 11:10:00, 0.0, 0.8
2024/02/05 11:20:00, 0.0, 0.8
2024/02/05 11:30:00, 0.0, 0.9
2024/02/05 11:40:00,---, 0.8
2024/02/05 11:50:00, 0.0, 1.2
2024/02/05 12:00:00, 0.0, 1.2
2024/02/05 12:10:00, 0.0, 0.6
2024/02/05 12:20:00, 0.0, 0.4
2024/02/05 12:30:00,---, 0.7
2024/02/05 12:40:00,---, 0.4
2024/02/05 12:50:00,---,-0.0
2024/02/05 13:00:00,---, 0.4
2024/02/05 13:10:00,---, 0.7
2024/02/05 13:20:00,18.2, 0.8
2024/02/05 13:30:00,---, 0.5
2024/02/05 13:40:00,18.8, 0.6
2024/02/05 13:50:00,19.0, 0.5
2024/02/05 14:00:00,19.4, 0.9
2024/02/05 14:10:00,19.4, 1.3
2024/02/05 14:20:00,19.9, 1.1
2024/02/05 14:30:00,20.5, 0.8
2024/02/05 14:40:00,20.6, 1.2
2024/02/05 14:50:00,20.8, 1.1
2024/02/05 15:00:00,21.1, 0.9
2024/02/05 15:10:00,21.1, 1.0
2024/02/05 15:20:00,20.8, 1.5
2024/02/05 15:30:00,21.3, 0.7
2024/02/05 15:40:00,21.8, 0.5
2024/02/05 15:50:00,22.2, 1.0
2024/02/05 16:00:00,22.4, 1.0
2024/02/05 16:10:00,22.6, 1.0
2024/02/05 16:20:00,22.7, 1.2
2024/02/05 16:30:00,22.7, 0.5
2024/02/05 16:40:00,22.6, 1.0
2024/02/05 16:50:00,22.5, 0.7
2024/02/05 17:00:00,22.7, 0.6
2024/02/05 17:10:00,23.0, 1.0
2024/02/05 17:20:00,23.5, 0.8
2024/02/05 17:30:00,23.6, 0.6
2024/02/05 17:40:00,23.2, 0.9
2024/02/05 17:50:00,23.5, 0.7
2024/02/05 18:00:00,23.4, 1.0
2024/02/05 18:10:00,23.8, 0.8
2024/02/05 18:20:00,24.2, 1.0
2024/02/05 18:30:00,24.3, 0.4
2024/02/05 18:40:00,24.4, 0.5
2024/02/05 18:50:00,24.4, 0.9
2024/02/05 19:00:00,24.5, 0.8
2024/02/05 19:10:00,24.7, 1.0
2024/02/05 19:20:00,24.8, 0.8
2024/02/05 19:30:00,24.7, 0.9
2024/02/05 19:40:00,24.5, 0.6
2024/02/05 19:50:00,24.3, 1.0
2024/02/05 20:00:00,24.4, 1.1
2024/02/05 20:10:00,24.3, 1.0
2024/02/05 20:20:00,24.8, 0.9
2024/02/05 20:30:00,25.1, 0.9
2024/02/05 20:40:00,25.2, 0.9
2024/02/05 20:50:00,25.2, 1.2
2024/02/05 21:00:00,25.0, 1.2
2024/02/05 21:10:00,25.0, 0.6
2024/02/05 21:20:00,24.9, 0.6
2024/02/05 21:30:00,24.8, 1.1
2024/02/05 21:40:00,24.7, 0.6
2024/02/05 21:50:00,24.5, 1.1
2024/02/05 22:00:00,24.4, 1.0
2024/02/05 22:10:00,24.6, 0.9
2024/02/05 22:20:00,24.7, 1.7
2024/02/05 22:30:00,24.6, 0.9
2024/02/05 22:40:00,24.3, 1.5
2024/02/05 22:50:00,24.5, 1.0
2024/02/05 23:00:00,24.5, 0.8
2024/02/05 23:10:00,24.4, 0.8
2024/02/05 23:20:00,24.2, 1.1
2024/02/05 23:30:00,24.4, 0.4
2024/02/05 23:40:00,24.2, 1.1
2024/02/05 23:50:00,24.3, 1.1
